Location: Fustérouau
(43.6836°N, 0.0118°E)
Time: 01:27:54
(UTC+00:00)

Daily predictions for brighter satellites

Satellite Brightness Start Highest point End
(mag) Time Altitude Azimuth Time Altitude Azimuth Time Altitude Azimuth
Cosmos 2219 Rocket 4.5 02:55:06 19° NE 02:55:06 19° NE 02:56:56 10° NE
USA 267 3.8 03:15:32 10° NE 03:20:18 52° NE 03:20:18 52° NE
Cosmos 2333 Rocket 4.2 03:39:30 19° N 03:39:30 19° N 03:41:05 10° NNE
COSMOS 2455 4.2 03:45:06 29° N 03:45:06 29° N 03:48:05 10° NNE
ACS3 Solar Sail 3.0 03:44:55 10° N 03:47:53 31° N 03:47:53 31° N
Cosmos 2360 Rocket 3.8 03:59:09 23° N 03:59:09 23° N 04:01:26 10° NNE
Cosmos 2322 Rocket 3.9 03:59:31 21° N 03:59:31 21° N 04:01:35 10° NNE
USA 234 3.3 03:51:17 10° ESE 03:57:49 75° NE 03:58:53 63° NNW
Gbstr 26 Del rocket 4.0 03:59:16 52° E 03:59:16 52° E 04:03:50 10° ENE
SL-16 R/B 4.3 04:06:03 14° N 04:06:03 14° N 04:07:02 10° N
Cosmos 1943 Rocket 3.8 04:06:17 12° N 04:10:41 30° NE 04:15:30 10° ESE
ARGOS 3.1 04:11:17 10° NNE 04:16:18 74° NNW 04:16:18 74° NNW
PAYLOAD A 4.1 04:12:07 10° NNE 04:17:34 78° ESE 04:20:29 28° S
Cosmos 1140 Rocket 4.3 04:15:56 21° N 04:19:08 49° ENE 04:24:03 10° SE
CZ-2C R/B 2.4 04:17:01 10° NNE 04:21:33 71° NNW 04:21:33 71° NNW
Cosmos 1809 Rocket 4.3 04:15:59 10° S 04:22:06 90° WSW 04:28:14 10° N
ADEOS Rocket 3.9 04:21:02 10° N 04:25:40 37° NW 04:25:40 37° NW
NOSS 3-1 (C) 2.7 04:27:25 81° SW 04:27:39 87° NW 04:33:09 10° NE
Cosmos 2100 Rocket 3.9 04:27:16 10° N 04:33:26 83° E 04:39:36 10° S
Cosmos 2219 Rocket 3.0 04:36:50 34° NNW 04:36:50 34° NNW 04:40:59 10° N
NOSS 0 Rocket 4.3 04:35:58 10° S 04:42:00 62° ESE 04:48:05 10° NNE
IRS-1D 4.3 04:37:13 10° NNE 04:42:04 51° E 04:46:51 10° S
COSMOS 2428 2.6 04:41:30 21° SSW 04:45:28 82° WNW 04:51:11 10° NNE
USA 59 Rocket 1.0 04:50:48 24° NNE 04:50:48 24° NNE 04:52:10 10° NNE
Cosmos 2322 3.6 04:50:01 29° SW 04:52:57 63° WNW 04:58:36 10° NNE
SL-08 RB Rocket 3.8 04:49:12 10° N 04:53:29 47° WNW 04:53:29 47° WNW
Cosmos 1459 Rocket 3.9 04:48:18 10° N 04:54:40 77° W 05:00:59 10° S
COSMO-SKYMED 1 3.8 04:53:50 10° SE 04:57:41 40° ENE 05:01:33 10° N
Meteor 2-21 4.3 04:51:44 10° SSW 04:57:47 65° W 05:03:49 10° N
FengYun 1-2 T 4.2 04:53:05 10° NNE 04:58:41 87° WNW 05:04:17 10° SSW
SKYMED 2 4.1 04:54:39 10° SSE 04:58:55 60° ENE 05:03:13 10° N
Cosmos 1727 Rocket 4.2 04:54:29 10° SSW 05:00:22 45° WNW 05:06:20 10° N
Cosmos 407 Rocket 4.0 04:56:04 10° NNW 05:01:07 59° ENE 05:06:08 10° SSE
Cosmos 2228 Rocket 4.4 05:03:28 24° NNW 05:03:28 24° NNW 05:05:40 10° N
Cosmos 1023 Rocket 4.3 04:58:45 20° NNW 05:02:14 66° WSW 05:07:14 10° S
USA 267 3.9 04:58:47 10° NE 05:04:43 38° NNW 05:07:38 26° WNW
Cosmos 1725 Rocket 4.0 04:58:45 10° N 05:05:08 88° E 05:11:26 10° S
Cosmos 1980 4.1 04:59:41 10° SSW 05:05:15 67° ESE 05:10:53 10° NNE
NOSS 3-1 (A) 2.9 05:07:12 10° SSW 05:11:47 84° SE 05:17:18 10° NE
Cosmos 1802 Rocket 3.9 05:06:39 10° NNW 05:13:01 73° W 05:19:15 10° S
Cosmos 1269 Rocket 4.2 05:09:27 17° NW 05:13:16 49° WSW 05:18:20 10° S
Cosmos 1328 3.7 05:11:15 10° SSW 05:14:45 45° WNW 05:18:17 10° N
Cosmos 1703 Rocket 3.5 05:11:49 10° SSW 05:16:06 60° W 05:20:26 10° N
Cosmos 921 Rocket 4.2 05:16:56 24° WSW 05:16:56 24° WSW 05:19:49 10° SSW
Cosmos 2233 Rocket 4.2 05:10:00 10° N 05:16:20 75° E 05:22:35 10° SSE
Cosmos 2278 Rocket 2.1 05:12:26 10° NNW 05:18:07 88° WSW 05:23:46 10° SSE
NOSS 2-1 (E) 3.6 05:18:52 33° NW 05:19:02 33° NW 05:21:56 10° NNE
Cosmos 2251 Rocket 4.5 05:14:44 10° N 05:19:57 49° ENE 05:25:07 10° SE
Meteor 2-16 Rocket 4.3 05:14:17 10° SSW 05:20:21 72° W 05:26:30 10° N
CZ-3 R/B 3.8 05:11:11 10° SW 05:20:32 22° S 05:25:15 10° SE
Cosmos 2333 Rocket 4.2 05:21:32 10° NW 05:21:32 10° NW 05:22:05 10° NNW
Cosmos 2237 Rocket 2.3 05:15:51 10° SSW 05:21:31 83° ESE 05:27:12 10° NNE
Cosmos 1939 Rocket 3.5 05:19:24 10° N 05:22:48 30° WNW 05:23:41 27° W
Cosmos 2173 Rocket 4.2 05:18:13 10° NNW 05:23:52 42° W 05:29:30 10° SSW
Cosmos 2292 Rocket 3.6 05:22:30 10° SSW 05:26:32 71° W 05:31:47 10° N
SL-08 R/B 4.4 05:21:05 10° N 05:27:13 78° W 05:33:22 10° S
BlueWalker 3 1.9 05:27:40 27° WNW 05:29:23 55° SW 05:32:54 10° SE
USA 276 2.2 05:29:39 34° WSW 05:30:16 41° SW 05:32:55 10° SE
Meteor 1-24 Rocket 3.9 05:25:35 10° SSW 05:31:10 49° WNW 05:36:37 10° N
Helios 1A Rocket 2.5 05:28:46 10° S 05:32:05 55° WSW 05:35:26 10° NNW
ACS3 Solar Sail 3.4 05:30:19 10° NNW 05:32:02 13° NW 05:32:02 13° NW
Cosmos 2369 Rocket 4.4 05:31:09 10° N 05:35:27 21° NE 05:39:44 10° E
CZ-4 R/B 4.0 05:32:39 10° N 05:37:25 53° WNW 05:42:04 10° SSW
Cosmos 1782 Rocket 3.5 05:35:02 10° NNW 05:39:24 66° W 05:43:43 10° S
USA 234 4.0 05:35:21 10° S 05:41:09 33° SW 05:46:14 13° WNW
Cosmos 2123 Rocket 4.3 05:36:04 10° SW 05:41:53 41° WNW 05:47:43 10° N
Meteor 2-5 Rocket 4.1 05:36:43 10° SW 05:42:21 45° WNW 05:47:58 10° N
Cosmos 1420 Rocket 4.0 05:38:25 10° SSW 05:43:41 89° ESE 05:49:00 10° NNE
Gbstr 26 Del rocket 4.0 05:41:19 16° W 05:45:09 47° NNW 05:51:05 10° ENE
NOAA 12 4.2 05:41:33 10° N 05:46:44 53° WNW 05:51:52 10° SW
Cosmos 44 Rocket 4.2 05:43:41 13° NW 05:47:34 33° WSW 05:52:07 10° S
CENTAUR R/B 4.4 05:41:23 10° NNW 05:48:43 37° NE 05:57:04 10° ESE
Cosmos 1943 Rocket 2.5 05:49:20 10° NW 05:54:32 43° WSW 05:59:40 10° S
Cosmos 2016 Rocket 4.4 05:49:16 10° NNW 05:55:11 42° W 06:01:03 10° SSW
Cosmos 1812 3.3 05:55:29 10° N 05:58:18 42° E 06:01:06 10° SSE
CZ-2C R/B 4.2 05:57:36 10° NW 05:59:17 12° WNW 06:00:45 10° WNW
Cosmos 1300 Rocket 4.1 05:55:52 10° NNW 05:59:48 35° W 06:03:41 10° SSW
Cosmos 2346 Rocket 4.4 05:54:22 10° SSW 06:00:32 73° W 06:06:40 10° N
SMAP 4.4 05:56:34 10° NNE 06:01:04 46° E 06:05:31 10° S
SJ 16-02 1.5 06:07:14 10° NNW 06:11:33 78° ENE 06:15:49 10° SSE
Iridium 4 Rocket 4.3 06:09:14 10° NNW 06:12:24 20° W 06:15:28 10° SW
Aureole 3 Rocket 3.5 06:08:18 10° N 06:12:44 80° W 06:18:55 10° S
Cosmos 2061 Rocket 4.3 06:09:46 10° NNW 06:15:35 43° W 06:21:21 10° SSW
CBERS-1 4.0 06:11:46 10° N 06:16:53 72° WNW 06:21:57 10° SSW
